Location: B�rgermoos
(47.6500°N, 9.0667°E)
Time: 04:32:09
(UTC+00:00)

Vanguard 2 - All Passes

Search period start: 31 July 2021 00:00
Search period end: 10 August 2021 00:00
Orbit: 552 x 2937 km, 32.9° (Epoch: 30 July)

Date Brightness Start Highest point End Pass type
(mag) Time Alt. Az. Time Alt. Az. Time Alt. Az.
31 Jul - 06:11:23 10° SW 06:15:17 20° S 06:20:28 10° SE daylight
31 Jul - 08:18:22 10° SW 08:23:15 20° S 08:29:53 10° SSE daylight
31 Jul - 10:29:30 10° SW 10:31:55 11° SSW 10:34:34 10° S daylight
01 Aug - 04:23:47 10° S 04:25:26 12° SSE 04:27:14 10° SE daylight
01 Aug - 06:28:52 10° SW 06:32:43 20° S 06:37:50 10° SE daylight
01 Aug - 08:36:30 10° SW 08:40:47 17° SSW 08:46:17 10° SSE daylight
02 Aug - 04:40:29 10° SSW 04:42:45 14° SSE 04:45:19 10° SE daylight
02 Aug - 06:46:30 10° SW 06:50:11 18° S 06:54:58 10° SE daylight
02 Aug - 08:55:18 10° SW 08:58:20 13° SSW 09:01:52 10° S daylight
03 Aug - 04:57:37 10° SSW 05:00:07 15° S 05:03:01 10° SE daylight
03 Aug - 07:04:22 10° SW 07:07:41 16° S 07:11:48 10° SSE daylight
04 Aug - 05:15:01 10° SSW 05:17:31 15° S 05:20:26 10° SE daylight
04 Aug - 07:22:42 10° SW 07:25:11 13° S 07:28:05 10° SSE daylight
05 Aug - 05:32:41 10° SSW 05:34:58 14° S 05:37:36 10° SSE daylight
06 Aug - 03:44:00 10° S 03:45:04 11° S 03:46:10 10° SSE daylight
06 Aug - 05:50:43 10° SSW 05:52:25 12° S 05:54:18 10° SSE daylight
07 Aug - 04:01:10 10° SSW 04:02:28 11° S 04:03:48 10° SSE daylight
08 Aug - 04:18:51 10° SSW 04:19:53 11° S 04:20:55 10° SSE daylight
09 Aug - 02:29:46 10° S 02:30:00 10° S 02:30:13 10° S visible
